This is the latest recevied weather packets stored in our database for station/object KI4NG. If no packets are shown the sender has not sent any weather packets the latest 10 day(s).
| Time | Temp. | Humidity | Pressure | Rain* | Wind** | Luminosity | Snow |
|---|---|---|---|---|---|---|---|
| 1778001073 | 20° C | 67% | 1014.7 hPa | 0 mm | - | 484 W/m² | - |
| 1778000770 | 20° C | 66% | 1014.8 hPa | 0 mm | - | 451 W/m² | - |
| 1778000466 | 20° C | 65% | 1014.9 hPa | 0 mm | - | 369 W/m² | - |
| 1778000161 | 20° C | 66% | 1015.2 hPa | 0 mm | - | 326 W/m² | - |
| 1777999857 | 20° C | 66% | 1014.9 hPa | 0 mm | - | 315 W/m² | - |
| 1777999553 | 20° C | 65% | 1015.1 hPa | 0 mm | - | 329 W/m² | - |
| 1777999251 | 19.44° C | 66% | 1015.1 hPa | 0 mm | - | 322 W/m² | - |
| 1777998949 | 19.44° C | 66% | 1015.1 hPa | 0 mm | - | 292 W/m² | - |
| 1777998645 | 20° C | 66% | 1015.2 hPa | 0 mm | - | 333 W/m² | - |
| 1777998338 | 20° C | 65% | 1015.5 hPa | 0 mm | - | 356 W/m² | - |
| 1777998036 | 20° C | 65% | 1015.3 hPa | 0 mm | - | 375 W/m² | - |
| 1777997732 | 20° C | 64% | 1015.3 hPa | 0 mm | - | 368 W/m² | - |
| 1777997430 | 20° C | 66% | 1015.4 hPa | 0 mm | - | 374 W/m² | - |
| 1777997127 | 19.44° C | 66% | 1015.4 hPa | 0 mm | - | 384 W/m² | - |
| 1777996825 | 19.44° C | 65% | 1015.4 hPa | 0 mm | - | 436 W/m² | - |
| 1777996520 | 20° C | 68% | 1015.5 hPa | 0 mm | - | 383 W/m² | - |
| 1777996217 | 19.44° C | 67% | 1015.4 hPa | 0 mm | - | 416 W/m² | - |
| 1777995914 | 18.89° C | 66% | 1015.5 hPa | 0 mm | - | 447 W/m² | - |
| 1777995609 | 18.89° C | 66% | 1015.5 hPa | 0 mm | - | 330 W/m² | - |
| 1777995308 | 18.89° C | 67% | 1015.5 hPa | 0 mm | - | 292 W/m² | - |
| 1777995004 | 18.89° C | 66% | 1015.5 hPa | 0 mm | - | 291 W/m² | - |
| 1777994701 | 18.89° C | 66% | 1015.3 hPa | 0 mm | - | 266 W/m² | - |
| 1777994396 | 18.89° C | 65% | 1015.2 hPa | 0 mm | - | 267 W/m² | - |
| 1777994092 | 18.89° C | 67% | 1015.3 hPa | 0 mm | - | 254 W/m² | - |
| 1777993789 | 18.89° C | 65% | 1015.3 hPa | 0 mm | - | 275 W/m² | - |
* Rain latest hour (hover to see other rain measurements)
** Current wind speed in m/s (hover to see current wind gust speed)